Time,TemperatureF,DewpointF,PressureIn,WindDirection,WindDirectionDegrees,WindSpeedMPH,WindSpeedGustMPH,Humidity,HourlyPrecipIn,Conditions,Clouds,dailyrainin,SoftwareType,DateUTC
2013-01-18 00:00:00,17.8,3.6,30.10,NW,312,2.0,8.0,53,0.00,,CLR,0.33,VWS V14.01,2013-01-18 05:00:00,
2013-01-18 00:01:00,17.8,3.6,30.10,ENE,61,2.0,8.0,53,0.00,,CLR,0.00,VWS V14.01,2013-01-18 05:01:00,
2013-01-18 00:02:00,17.8,3.6,30.10,NNW,346,10.0,12.0,53,0.00,,CLR,0.00,VWS V14.01,2013-01-18 05:02:00,
2013-01-18 00:07:00,17.7,4.7,30.09,NNE,32,4.0,6.0,56,0.00,,CLR,0.00,VWS V14.01,2013-01-18 05:07:00,
2013-01-18 00:12:00,17.5,4.1,30.09,NE,52,8.0,11.0,55,0.00,,CLR,0.00,VWS V14.01,2013-01-18 05:12:00,
2013-01-18 00:17:00,17.3,4.3,30.10,ENE,77,4.0,6.0,56,0.00,,CLR,0.00,VWS V14.01,2013-01-18 05:17:00,
2013-01-18 00:22:00,17.3,5.1,30.11,NE,39,2.0,8.0,58,0.00,,CLR,0.00,VWS V14.01,2013-01-18 05:22:00,
2013-01-18 00:27:00,17.1,3.3,30.11,NNE,23,3.0,6.0,54,0.00,,CLR,0.00,VWS V14.01,2013-01-18 05:27:00,
2013-01-18 00:32:00,17.0,3.6,30.11,NE,39,5.0,8.0,55,0.00,,CLR,0.00,VWS V14.01,2013-01-18 05:32:00,
2013-01-18 00:37:00,16.8,2.2,30.12,NE,44,10.0,10.0,52,0.00,,CLR,0.00,VWS V14.01,2013-01-18 05:37:00,
2013-01-18 00:42:00,16.6,0.8,30.14,North,8,6.0,8.0,49,0.00,,CLR,0.00,VWS V14.01,2013-01-18 05:42:00,
2013-01-18 00:47:00,16.5,1.1,30.14,NW,318,1.0,4.0,50,0.00,,CLR,0.00,VWS V14.01,2013-01-18 05:47:00,
2013-01-18 00:52:00,16.6,2.9,30.13,NE,47,2.0,3.0,54,0.00,,CLR,0.00,VWS V14.01,2013-01-18 05:52:00,
2013-01-18 00:57:00,16.6,1.6,30.14,NE,36,2.0,4.0,51,0.00,,CLR,0.00,VWS V14.01,2013-01-18 05:57:00,
2013-01-18 01:02:00,16.6,2.0,30.14,North,356,3.0,11.0,52,0.00,,FEW075,0.00,VWS V14.01,2013-01-18 06:02:00,
2013-01-18 01:07:00,16.6,2.0,30.13,NNE,21,4.0,9.0,52,0.00,,FEW075,0.00,VWS V14.01,2013-01-18 06:07:00,
2013-01-18 01:12:00,16.6,2.9,30.12,NE,39,5.0,9.0,54,0.00,,FEW075,0.00,VWS V14.01,2013-01-18 06:12:00,
2013-01-18 01:17:00,16.6,3.7,30.13,NNW,342,3.0,9.0,56,0.00,,FEW075,0.00,VWS V14.01,2013-01-18 06:17:00,
2013-01-18 01:22:00,16.6,2.9,30.15,ENE,75,6.0,11.0,54,0.00,,FEW075,0.00,VWS V14.01,2013-01-18 06:22:00,
2013-01-18 01:27:00,16.5,2.8,30.13,ENE,66,7.0,13.0,54,0.00,,FEW075,0.00,VWS V14.01,2013-01-18 06:27:00,
2013-01-18 01:32:00,16.3,2.2,30.11,NNW,333,3.0,5.0,53,0.00,,FEW075,0.00,VWS V14.01,2013-01-18 06:32:00,
2013-01-18 01:37:00,16.2,2.1,30.12,NNE,13,6.0,10.0,53,0.00,,FEW075,0.00,VWS V14.01,2013-01-18 06:37:00,
2013-01-18 01:42:00,16.1,1.6,30.13,NE,56,9.0,11.0,52,0.00,,FEW075,0.00,VWS V14.01,2013-01-18 06:42:00,
2013-01-18 01:47:00,16.0,1.5,30.13,NNW,329,4.0,8.0,52,0.00,,FEW075,0.00,VWS V14.01,2013-01-18 06:47:00,
2013-01-18 01:52:00,15.9,1.4,30.12,ENE,71,5.0,5.0,52,0.00,,FEW075,0.00,VWS V14.01,2013-01-18 06:52:00,
2013-01-18 01:57:00,15.7,0.4,30.13,ENE,65,7.0,7.0,50,0.00,,FEW075,0.00,VWS V14.01,2013-01-18 06:57:00,
2013-01-18 02:02:00,15.6,1.1,30.12,East,94,8.0,10.0,52,0.00,,SCT075,0.00,VWS V14.01,2013-01-18 07:02:00,
2013-01-18 02:07:00,15.7,1.2,30.12,NNE,15,6.0,7.0,52,0.00,,SCT075,0.00,VWS V14.01,2013-01-18 07:07:00,
2013-01-18 02:12:00,15.7,1.6,30.12,NNE,25,6.0,9.0,53,0.00,,SCT075,0.00,VWS V14.01,2013-01-18 07:12:00,
2013-01-18 02:17:00,15.7,0.8,30.14,ENE,72,5.0,11.0,51,0.00,,SCT075,0.00,VWS V14.01,2013-01-18 07:17:00,
2013-01-18 02:22:00,15.6,1.1,30.14,NNE,22,3.0,6.0,52,0.00,,SCT075,0.00,VWS V14.01,2013-01-18 07:22:00,
2013-01-18 02:27:00,15.6,-0.2,30.15,NNW,342,6.0,12.0,49,0.00,,SCT075,0.00,VWS V14.01,2013-01-18 07:27:00,
2013-01-18 02:32:00,15.4,-0.8,30.16,ESE,110,3.0,9.0,48,0.00,,SCT075,0.00,VWS V14.01,2013-01-18 07:32:00,
2013-01-18 02:37:00,15.4,0.1,30.16,NNE,15,6.0,11.0,50,0.00,,SCT075,0.00,VWS V14.01,2013-01-18 07:37:00,
2013-01-18 02:42:00,15.3,-0.9,30.15,NW,322,4.0,10.0,48,0.00,,SCT075,0.00,VWS V14.01,2013-01-18 07:42:00,
2013-01-18 02:47:00,15.2,-0.5,30.15,NNW,333,2.0,9.0,49,0.00,,SCT075,0.00,VWS V14.01,2013-01-18 07:47:00,
2013-01-18 02:52:00,15.2,0.3,30.13,NW,326,1.0,5.0,51,0.00,,SCT075,0.00,VWS V14.01,2013-01-18 07:52:00,
2013-01-18 02:57:00,15.1,-0.2,30.14,NNE,26,3.0,5.0,50,0.00,,SCT075,0.00,VWS V14.01,2013-01-18 07:57:00,
2013-01-18 03:02:00,15.1,-0.2,30.15,NW,312,4.0,6.0,50,0.00,,OVC080,0.00,VWS V14.01,2013-01-18 08:02:00,
2013-01-18 03:07:00,14.9,-1.7,30.17,NNW,347,4.0,8.0,47,0.00,,OVC080,0.00,VWS V14.01,2013-01-18 08:07:00,
2013-01-18 03:12:00,14.8,-1.3,30.17,North,360,8.0,8.0,48,0.00,,OVC080,0.00,VWS V14.01,2013-01-18 08:12:00,
2013-01-18 03:17:00,14.7,-1.9,30.17,NNW,333,2.0,4.0,47,0.00,,OVC080,0.00,VWS V14.01,2013-01-18 08:17:00,
2013-01-18 03:22:00,14.7,-1.9,30.17,NW,322,2.0,5.0,47,0.00,,OVC080,0.00,VWS V14.01,2013-01-18 08:22:00,
2013-01-18 03:27:00,14.5,-2.0,30.15,NNW,338,4.0,5.0,47,0.00,,OVC080,0.00,VWS V14.01,2013-01-18 08:27:00,
2013-01-18 03:32:00,14.4,-2.6,30.15,NNE,12,4.0,10.0,46,0.00,,OVC080,0.00,VWS V14.01,2013-01-18 08:32:00,
2013-01-18 03:37:00,14.4,-1.3,30.16,NNW,346,4.0,6.0,49,0.00,,OVC080,0.00,VWS V14.01,2013-01-18 08:37:00,
2013-01-18 03:42:00,14.3,-2.2,30.16,NNE,25,6.0,8.0,47,0.00,,OVC080,0.00,VWS V14.01,2013-01-18 08:42:00,
2013-01-18 03:47:00,14.3,-1.8,30.15,WNW,295,3.0,8.0,48,0.00,,OVC080,0.00,VWS V14.01,2013-01-18 08:47:00,
2013-01-18 03:52:00,14.1,-2.9,30.14,North,357,9.0,11.0,46,0.00,,OVC080,0.00,VWS V14.01,2013-01-18 08:52:00,
2013-01-18 03:57:00,14.0,-2.5,30.14,NNW,329,7.0,12.0,47,0.00,,OVC080,0.00,VWS V14.01,2013-01-18 08:57:00,
2013-01-18 04:02:00,13.9,-2.2,30.13,North,9,6.0,7.0,48,0.00,,OVC090,0.00,VWS V14.01,2013-01-18 09:02:00,
2013-01-18 04:07:00,13.8,-2.2,30.14,NNW,338,4.0,7.0,48,0.00,,OVC090,0.00,VWS V14.01,2013-01-18 09:07:00,
2013-01-18 04:12:00,13.7,-2.3,30.13,WNW,301,3.0,8.0,48,0.00,,OVC090,0.00,VWS V14.01,2013-01-18 09:12:00,
2013-01-18 04:17:00,13.7,-2.3,30.14,WNW,297,4.0,8.0,48,0.00,,OVC090,0.00,VWS V14.01,2013-01-18 09:17:00,
2013-01-18 04:22:00,13.7,-1.5,30.15,East,79,6.0,12.0,50,0.00,,OVC090,0.00,VWS V14.01,2013-01-18 09:22:00,
2013-01-18 04:27:00,13.6,-2.0,30.17,NW,322,6.0,7.0,49,0.00,,OVC090,0.00,VWS V14.01,2013-01-18 09:27:00,
2013-01-18 04:32:00,13.6,-1.6,30.17,NNW,334,8.0,14.0,50,0.00,,OVC090,0.00,VWS V14.01,2013-01-18 09:32:00,
2013-01-18 04:37:00,13.5,-2.5,30.16,NNE,17,3.0,9.0,48,0.00,,OVC090,0.00,VWS V14.01,2013-01-18 09:37:00,
2013-01-18 04:42:00,13.3,-2.7,30.16,NNW,344,2.0,8.0,48,0.00,,OVC090,0.00,VWS V14.01,2013-01-18 09:42:00,
2013-01-18 04:47:00,13.2,-3.2,30.15,WNW,297,2.0,6.0,47,0.00,,OVC090,0.00,VWS V14.01,2013-01-18 09:47:00,
2013-01-18 04:52:00,13.1,-2.9,30.15,NNE,27,2.0,5.0,48,0.00,,OVC090,0.00,VWS V14.01,2013-01-18 09:52:00,
2013-01-18 04:57:00,13.1,-2.9,30.16,NE,38,8.0,10.0,48,0.00,,OVC090,0.00,VWS V14.01,2013-01-18 09:57:00,
2013-01-18 05:02:00,13.0,-3.9,30.16,NW,324,4.0,12.0,46,0.00,,CLR,0.00,VWS V14.01,2013-01-18 10:02:00,
2013-01-18 05:07:00,13.0,-2.6,30.17,NW,307,4.0,5.0,49,0.00,,CLR,0.00,VWS V14.01,2013-01-18 10:07:00,
2013-01-18 05:12:00,13.0,-2.6,30.17,NNE,17,7.0,7.0,49,0.00,,CLR,0.00,VWS V14.01,2013-01-18 10:12:00,
2013-01-18 05:17:00,12.8,-3.6,30.18,NNE,27,3.0,7.0,47,0.00,,CLR,0.00,VWS V14.01,2013-01-18 10:17:00,
2013-01-18 05:22:00,12.8,-3.6,30.18,NW,325,7.0,10.0,47,0.00,,CLR,0.00,VWS V14.01,2013-01-18 10:22:00,
2013-01-18 05:27:00,12.6,-4.2,30.18,NW,305,5.0,9.0,46,0.00,,CLR,0.00,VWS V14.01,2013-01-18 10:27:00,
2013-01-18 05:32:00,12.4,-4.0,30.18,NNW,336,4.0,10.0,47,0.00,,CLR,0.00,VWS V14.01,2013-01-18 10:32:00,
2013-01-18 05:37:00,12.4,-3.1,30.18,NNE,24,4.0,8.0,49,0.00,,CLR,0.00,VWS V14.01,2013-01-18 10:37:00,
2013-01-18 05:42:00,12.2,-4.6,30.18,NNE,15,3.0,9.0,46,0.00,,CLR,0.00,VWS V14.01,2013-01-18 10:42:00,
2013-01-18 05:47:00,12.0,-4.3,30.19,NNW,334,3.0,10.0,47,0.00,,CLR,0.00,VWS V14.01,2013-01-18 10:47:00,
2013-01-18 05:52:00,11.8,-5.4,30.19,NW,311,5.0,12.0,45,0.00,,CLR,0.00,VWS V14.01,2013-01-18 10:52:00,
2013-01-18 05:57:00,11.8,-4.1,30.19,NW,319,3.0,9.0,48,0.00,,CLR,0.00,VWS V14.01,2013-01-18 10:57:00,
2013-01-18 06:02:00,11.8,-3.7,30.20,NNE,27,6.0,16.0,49,0.00,,CLR,0.00,VWS V14.01,2013-01-18 11:02:00,
2013-01-18 06:07:00,11.6,-4.3,30.20,WNW,295,1.0,4.0,48,0.00,,CLR,0.00,VWS V14.01,2013-01-18 11:07:00,
2013-01-18 06:12:00,11.4,-4.5,30.20,NW,319,2.0,9.0,48,0.00,,CLR,0.00,VWS V14.01,2013-01-18 11:12:00,
2013-01-18 06:17:00,11.3,-5.0,30.20,NW,319,3.0,7.0,47,0.00,,CLR,0.00,VWS V14.01,2013-01-18 11:17:00,
2013-01-18 06:22:00,11.2,-4.7,30.20,WNW,295,3.0,6.0,48,0.00,,CLR,0.00,VWS V14.01,2013-01-18 11:22:00,
2013-01-18 06:27:00,11.1,-4.3,30.21,NE,38,4.0,7.0,49,0.00,,CLR,0.00,VWS V14.01,2013-01-18 11:27:00,
2013-01-18 06:32:00,11.0,-4.8,30.21,North,354,1.0,2.0,48,0.00,,CLR,0.00,VWS V14.01,2013-01-18 11:32:00,
2013-01-18 06:37:00,10.9,-4.9,30.22,North,7,7.0,12.0,48,0.00,,CLR,0.00,VWS V14.01,2013-01-18 11:37:00,
2013-01-18 06:42:00,10.9,-4.9,30.22,ENE,70,9.0,9.0,48,0.00,,CLR,0.00,VWS V14.01,2013-01-18 11:42:00,
2013-01-18 06:47:00,10.9,-5.4,30.22,NE,36,5.0,7.0,47,0.00,,CLR,0.00,VWS V14.01,2013-01-18 11:47:00,
2013-01-18 06:52:00,10.8,-5.5,30.23,NNE,22,4.0,8.0,47,0.00,,CLR,0.00,VWS V14.01,2013-01-18 11:52:00,
2013-01-18 06:57:00,10.7,-5.6,30.23,NW,323,3.0,8.0,47,0.00,,CLR,0.00,VWS V14.01,2013-01-18 11:57:00,
2013-01-18 07:02:00,10.7,-5.6,30.24,NW,311,8.0,8.0,47,0.00,,CLR,0.00,VWS V14.01,2013-01-18 12:02:00,
2013-01-18 07:07:00,10.6,-6.1,30.24,WNW,302,2.0,6.0,46,0.00,,CLR,0.00,VWS V14.01,2013-01-18 12:07:00,
2013-01-18 07:12:00,10.4,-5.8,30.24,North,350,4.0,5.0,47,0.00,,CLR,0.00,VWS V14.01,2013-01-18 12:12:00,
2013-01-18 07:17:00,10.3,-5.5,30.25,NNW,340,3.0,4.0,48,0.00,,CLR,0.00,VWS V14.01,2013-01-18 12:17:00,
2013-01-18 07:22:00,10.2,-5.2,30.25,North,11,6.0,7.0,49,0.00,,CLR,0.00,VWS V14.01,2013-01-18 12:22:00,
2013-01-18 07:27:00,10.3,-4.6,30.25,NW,315,0.0,0.0,50,0.00,,CLR,0.00,VWS V14.01,2013-01-18 12:27:00,
2013-01-18 07:32:00,10.4,-5.4,30.25,NW,316,6.0,8.0,48,0.00,,CLR,0.00,VWS V14.01,2013-01-18 12:32:00,
2013-01-18 07:37:00,10.5,-5.7,30.26,NW,318,6.0,6.0,47,0.00,,CLR,0.00,VWS V14.01,2013-01-18 12:37:00,
2013-01-18 07:42:00,10.6,-6.1,30.26,NW,323,3.0,9.0,46,0.00,,CLR,0.00,VWS V14.01,2013-01-18 12:42:00,
2013-01-18 07:47:00,10.6,-7.0,30.26,NNE,27,5.0,9.0,44,0.00,,CLR,0.00,VWS V14.01,2013-01-18 12:47:00,
2013-01-18 07:52:00,10.6,-7.9,30.27,NNW,347,8.0,8.0,42,0.00,,CLR,0.00,VWS V14.01,2013-01-18 12:52:00,
2013-01-18 07:57:00,10.6,-8.4,30.27,NW,315,5.0,8.0,41,0.00,,CLR,0.00,VWS V14.01,2013-01-18 12:57:00,
2013-01-18 08:02:00,10.6,-9.5,30.27,NW,324,6.0,7.0,39,0.00,,CLR,0.00,VWS V14.01,2013-01-18 13:02:00,
2013-01-18 08:07:00,10.6,-8.9,30.27,NW,311,6.0,7.0,40,0.00,,CLR,0.00,VWS V14.01,2013-01-18 13:07:00,
2013-01-18 08:12:00,10.7,-9.4,30.28,NW,321,8.0,10.0,39,0.00,,CLR,0.00,VWS V14.01,2013-01-18 13:12:00,
2013-01-18 08:17:00,10.7,-9.4,30.28,NW,316,7.0,10.0,39,0.00,,CLR,0.00,VWS V14.01,2013-01-18 13:17:00,
2013-01-18 08:22:00,10.7,-9.9,30.28,NW,317,5.0,12.0,38,0.00,,CLR,0.00,VWS V14.01,2013-01-18 13:22:00,
2013-01-18 08:27:00,10.8,-9.8,30.29,NW,319,9.0,12.0,38,0.00,,CLR,0.00,VWS V14.01,2013-01-18 13:27:00,
2013-01-18 08:32:00,10.8,-10.4,30.29,NNW,335,9.0,10.0,37,0.00,,CLR,0.00,VWS V14.01,2013-01-18 13:32:00,
2013-01-18 08:37:00,10.8,-10.4,30.29,WNW,298,5.0,11.0,37,0.00,,CLR,0.00,VWS V14.01,2013-01-18 13:37:00,
2013-01-18 08:42:00,11.0,-10.2,30.29,North,350,5.0,6.0,37,0.00,,CLR,0.00,VWS V14.01,2013-01-18 13:42:00,
2013-01-18 08:47:00,11.1,-9.0,30.29,NW,306,6.0,11.0,39,0.00,,CLR,0.00,VWS V14.01,2013-01-18 13:47:00,
2013-01-18 08:52:00,11.2,-10.0,30.28,WNW,301,9.0,10.0,37,0.00,,CLR,0.00,VWS V14.01,2013-01-18 13:52:00,
2013-01-18 08:57:00,11.2,-10.0,30.29,WNW,300,6.0,10.0,37,0.00,,CLR,0.00,VWS V14.01,2013-01-18 13:57:00,
2013-01-18 09:02:00,11.4,-9.8,30.29,NNE,18,7.0,10.0,37,0.00,,CLR,0.00,VWS V14.01,2013-01-18 14:02:00,
2013-01-18 09:07:00,11.4,-10.4,30.30,NW,326,3.0,7.0,36,0.00,,CLR,0.00,VWS V14.01,2013-01-18 14:07:00,
2013-01-18 09:12:00,11.6,-9.6,30.30,NW,308,3.0,5.0,37,0.00,,CLR,0.00,VWS V14.01,2013-01-18 14:12:00,
2013-01-18 09:17:00,11.9,-9.4,30.30,NW,319,4.0,7.0,37,0.00,,CLR,0.00,VWS V14.01,2013-01-18 14:17:00,
2013-01-18 09:22:00,12.1,-8.6,30.30,NW,307,4.0,6.0,38,0.00,,CLR,0.00,VWS V14.01,2013-01-18 14:22:00,
2013-01-18 09:27:00,12.3,-8.4,30.30,NNW,331,1.0,4.0,38,0.00,,CLR,0.00,VWS V14.01,2013-01-18 14:27:00,
2013-01-18 09:32:00,12.6,-8.2,30.31,ENE,66,2.0,4.0,38,0.00,,CLR,0.00,VWS V14.01,2013-01-18 14:32:00,
2013-01-18 09:37:00,12.9,-7.4,30.31,North,356,6.0,6.0,39,0.00,,CLR,0.00,VWS V14.01,2013-01-18 14:37:00,
2013-01-18 09:42:00,12.9,-9.0,30.31,NW,319,8.0,8.0,36,0.00,,CLR,0.00,VWS V14.01,2013-01-18 14:42:00,
2013-01-18 09:47:00,12.7,-8.6,30.31,WNW,294,5.0,9.0,37,0.00,,CLR,0.00,VWS V14.01,2013-01-18 14:47:00,
2013-01-18 09:52:00,12.5,-9.9,30.31,NNW,342,3.0,6.0,35,0.00,,CLR,0.00,VWS V14.01,2013-01-18 14:52:00,
2013-01-18 09:57:00,12.5,-9.4,30.31,NW,308,4.0,6.0,36,0.00,,CLR,0.00,VWS V14.01,2013-01-18 14:57:00,
2013-01-18 10:02:00,12.6,-9.9,30.31,NW,309,7.0,10.0,35,0.00,,CLR,0.00,VWS V14.01,2013-01-18 15:02:00,
2013-01-18 10:07:00,12.7,-9.8,30.31,NW,305,4.0,6.0,35,0.00,,CLR,0.00,VWS V14.01,2013-01-18 15:07:00,
2013-01-18 10:12:00,12.7,-9.2,30.31,NW,307,1.0,5.0,36,0.00,,CLR,0.00,VWS V14.01,2013-01-18 15:12:00,
2013-01-18 10:17:00,13.0,-8.4,30.31,NW,309,3.0,6.0,37,0.00,,CLR,0.00,VWS V14.01,2013-01-18 15:17:00,
2013-01-18 10:22:00,13.0,-9.5,30.31,NW,326,3.0,4.0,35,0.00,,CLR,0.00,VWS V14.01,2013-01-18 15:22:00,
2013-01-18 10:27:00,13.0,-8.9,30.31,NNW,335,4.0,5.0,36,0.00,,CLR,0.00,VWS V14.01,2013-01-18 15:27:00,
2013-01-18 10:32:00,13.2,-8.7,30.31,WNW,288,3.0,7.0,36,0.00,,CLR,0.00,VWS V14.01,2013-01-18 15:32:00,
2013-01-18 10:37:00,13.4,-7.5,30.31,NW,316,5.0,11.0,38,0.00,,CLR,0.00,VWS V14.01,2013-01-18 15:37:00,
2013-01-18 10:42:00,13.4,-8.0,30.31,NNW,329,3.0,7.0,37,0.00,,CLR,0.00,VWS V14.01,2013-01-18 15:42:00,
2013-01-18 10:47:00,13.6,-7.8,30.31,NW,322,4.0,6.0,37,0.00,,CLR,0.00,VWS V14.01,2013-01-18 15:47:00,
2013-01-18 10:52:00,13.7,-6.7,30.31,NNW,329,4.0,8.0,39,0.00,,CLR,0.00,VWS V14.01,2013-01-18 15:52:00,
2013-01-18 10:57:00,13.7,-7.7,30.30,NW,305,2.0,2.0,37,0.00,,CLR,0.00,VWS V14.01,2013-01-18 15:57:00,
2013-01-18 11:02:00,13.9,-7.6,30.30,NNW,343,2.0,4.0,37,0.00,,CLR,0.00,VWS V14.01,2013-01-18 16:02:00,
2013-01-18 11:07:00,13.9,-6.5,30.30,NNW,328,2.0,2.0,39,0.00,,CLR,0.00,VWS V14.01,2013-01-18 16:07:00,
2013-01-18 11:12:00,14.3,-6.1,30.30,NNE,24,2.0,5.0,39,0.00,,CLR,0.00,VWS V14.01,2013-01-18 16:12:00,
2013-01-18 11:17:00,14.8,-5.7,30.30,NNW,334,7.0,8.0,39,0.00,,CLR,0.00,VWS V14.01,2013-01-18 16:17:00,
2013-01-18 11:22:00,14.5,-8.1,30.30,NW,305,2.0,4.0,35,0.00,,CLR,0.00,VWS V14.01,2013-01-18 16:22:00,
2013-01-18 11:27:00,14.7,-6.3,30.30,NNE,22,2.0,5.0,38,0.00,,CLR,0.00,VWS V14.01,2013-01-18 16:27:00,
2013-01-18 11:32:00,14.8,-6.2,30.29,NNE,18,1.0,3.0,38,0.00,,CLR,0.00,VWS V14.01,2013-01-18 16:32:00,
2013-01-18 11:37:00,15.1,-5.4,30.29,NW,326,2.0,4.0,39,0.00,,CLR,0.00,VWS V14.01,2013-01-18 16:37:00,
2013-01-18 11:42:00,15.2,-5.8,30.29,NW,307,4.0,6.0,38,0.00,,CLR,0.00,VWS V14.01,2013-01-18 16:42:00,
2013-01-18 11:47:00,15.1,-5.9,30.29,NW,312,1.0,3.0,38,0.00,,CLR,0.00,VWS V14.01,2013-01-18 16:47:00,
2013-01-18 11:52:00,15.2,-6.9,30.29,NE,49,3.0,6.0,36,0.00,,CLR,0.00,VWS V14.01,2013-01-18 16:52:00,
2013-01-18 11:57:00,15.2,-6.9,30.29,NNW,329,6.0,6.0,36,0.00,,CLR,0.00,VWS V14.01,2013-01-18 16:57:00,
2013-01-18 12:02:00,15.4,-5.7,30.29,North,352,5.0,6.0,38,0.00,,CLR,0.00,VWS V14.01,2013-01-18 17:02:00,
2013-01-18 12:07:00,15.6,-6.0,30.29,NW,317,4.0,5.0,37,0.00,,CLR,0.00,VWS V14.01,2013-01-18 17:07:00,
2013-01-18 12:12:00,16.0,-5.1,30.29,North,354,5.0,7.0,38,0.00,,CLR,0.00,VWS V14.01,2013-01-18 17:12:00,
2013-01-18 12:17:00,16.0,-4.6,30.30,West,276,4.0,5.0,39,0.00,,CLR,0.00,VWS V14.01,2013-01-18 17:17:00,
2013-01-18 12:22:00,16.0,-6.2,30.29,WSW,256,2.0,7.0,36,0.00,,CLR,0.00,VWS V14.01,2013-01-18 17:22:00,
2013-01-18 12:27:00,16.2,-4.9,30.29,NNE,15,1.0,5.0,38,0.00,,CLR,0.00,VWS V14.01,2013-01-18 17:27:00,
2013-01-18 12:32:00,16.6,-6.3,30.29,WNW,301,6.0,10.0,35,0.00,,CLR,0.00,VWS V14.01,2013-01-18 17:32:00,
2013-01-18 12:37:00,16.8,-5.5,30.29,NW,323,10.0,12.0,36,0.00,,CLR,0.00,VWS V14.01,2013-01-18 17:37:00,
2013-01-18 12:42:00,16.6,-6.9,30.29,NNW,336,4.0,7.0,34,0.00,,CLR,0.00,VWS V14.01,2013-01-18 17:42:00,
2013-01-18 12:47:00,16.7,-6.8,30.29,NW,319,9.0,10.0,34,0.00,,CLR,0.00,VWS V14.01,2013-01-18 17:47:00,
2013-01-18 12:52:00,16.8,-6.7,30.29,NW,317,4.0,9.0,34,0.00,,CLR,0.00,VWS V14.01,2013-01-18 17:52:00,
2013-01-18 12:57:00,17.2,-5.2,30.29,NW,305,8.0,10.0,36,0.00,,CLR,0.00,VWS V14.01,2013-01-18 17:57:00,
2013-01-18 13:02:00,17.3,-5.7,30.29,WNW,292,4.0,8.0,35,0.00,,CLR,0.00,VWS V14.01,2013-01-18 18:02:00,
2013-01-18 13:07:00,17.3,-5.1,30.29,NW,324,7.0,12.0,36,0.00,,CLR,0.00,VWS V14.01,2013-01-18 18:07:00,
2013-01-18 13:12:00,17.5,-4.3,30.29,NW,316,3.0,4.0,37,0.00,,CLR,0.00,VWS V14.01,2013-01-18 18:12:00,
2013-01-18 13:17:00,17.8,-3.0,30.29,NE,43,4.0,5.0,39,0.00,,CLR,0.00,VWS V14.01,2013-01-18 18:17:00,
2013-01-18 13:22:00,17.8,-5.2,30.30,NNW,334,7.0,11.0,35,0.00,,CLR,0.00,VWS V14.01,2013-01-18 18:22:00,
2013-01-18 13:27:00,17.9,-5.1,30.30,NW,326,7.0,7.0,35,0.00,,CLR,0.00,VWS V14.01,2013-01-18 18:27:00,
2013-01-18 13:32:00,17.8,-5.2,30.30,WNW,301,6.0,9.0,35,0.00,,CLR,0.00,VWS V14.01,2013-01-18 18:32:00,
2013-01-18 13:37:00,18.2,-4.3,30.30,WNW,301,6.0,9.0,36,0.00,,CLR,0.00,VWS V14.01,2013-01-18 18:37:00,
2013-01-18 13:42:00,18.2,-4.3,30.30,NW,322,10.0,10.0,36,0.00,,CLR,0.00,VWS V14.01,2013-01-18 18:42:00,
2013-01-18 13:47:00,18.3,-5.4,30.31,NNW,329,9.0,12.0,34,0.00,,CLR,0.00,VWS V14.01,2013-01-18 18:47:00,
2013-01-18 13:52:00,18.6,-3.9,30.31,WNW,300,5.0,9.0,36,0.00,,CLR,0.00,VWS V14.01,2013-01-18 18:52:00,
2013-01-18 13:57:00,18.9,-4.8,30.31,NW,321,4.0,4.0,34,0.00,,CLR,0.00,VWS V14.01,2013-01-18 18:57:00,
2013-01-18 14:03:00,18.9,-5.4,30.31,NW,306,6.0,7.0,33,0.00,,CLR,0.00,VWS V14.01,2013-01-18 19:03:00,
2013-01-18 14:08:00,19.1,-5.3,30.31,WNW,298,8.0,12.0,33,0.00,,CLR,0.00,VWS V14.01,2013-01-18 19:08:00,
2013-01-18 14:13:00,19.2,-5.8,30.31,NW,305,8.0,13.0,32,0.00,,CLR,0.00,VWS V14.01,2013-01-18 19:13:00,
2013-01-18 14:18:00,19.2,-5.2,30.31,NW,305,9.0,10.0,33,0.00,,CLR,0.00,VWS V14.01,2013-01-18 19:18:00,
2013-01-18 14:23:00,19.2,-6.5,30.31,NW,315,8.0,13.0,31,0.00,,CLR,0.00,VWS V14.01,2013-01-18 19:23:00,
2013-01-18 14:28:00,19.3,-5.7,30.31,WNW,302,5.0,9.0,32,0.00,,CLR,0.00,VWS V14.01,2013-01-18 19:28:00,
2013-01-18 14:33:00,19.2,-7.1,30.31,NW,305,8.0,11.0,30,0.00,,CLR,0.00,VWS V14.01,2013-01-18 19:33:00,
2013-01-18 14:38:00,19.1,-6.6,30.31,NNW,329,7.0,13.0,31,0.00,,CLR,0.00,VWS V14.01,2013-01-18 19:38:00,
2013-01-18 14:43:00,19.2,-5.8,30.31,NW,307,5.0,7.0,32,0.00,,CLR,0.00,VWS V14.01,2013-01-18 19:43:00,
2013-01-18 14:48:00,19.1,-6.6,30.31,NNW,335,7.0,10.0,31,0.00,,CLR,0.00,VWS V14.01,2013-01-18 19:48:00,
2013-01-18 14:53:00,19.5,-4.9,30.32,WNW,300,2.0,7.0,33,0.00,,CLR,0.00,VWS V14.01,2013-01-18 19:53:00,
2013-01-18 14:58:00,19.6,-5.5,30.32,NW,308,6.0,9.0,32,0.00,,CLR,0.00,VWS V14.01,2013-01-18 19:58:00,
2013-01-18 15:03:00,19.6,-4.2,30.33,WNW,295,4.0,7.0,34,0.00,,CLR,0.00,VWS V14.01,2013-01-18 20:03:00,
2013-01-18 15:08:00,19.7,-4.1,30.33,West,260,6.0,8.0,34,0.00,,CLR,0.00,VWS V14.01,2013-01-18 20:08:00,
2013-01-18 15:13:00,19.7,-4.7,30.33,WNW,291,5.0,8.0,33,0.00,,CLR,0.00,VWS V14.01,2013-01-18 20:13:00,
2013-01-18 15:18:00,19.5,-4.9,30.34,WNW,290,2.0,4.0,33,0.00,,CLR,0.00,VWS V14.01,2013-01-18 20:18:00,
2013-01-18 15:23:00,19.6,-3.6,30.34,WNW,298,1.0,7.0,35,0.00,,CLR,0.00,VWS V14.01,2013-01-18 20:23:00,
2013-01-18 15:28:00,19.5,-4.3,30.34,NW,314,6.0,9.0,34,0.00,,CLR,0.00,VWS V14.01,2013-01-18 20:28:00,
2013-01-18 15:33:00,19.3,-4.5,30.34,WNW,291,8.0,12.0,34,0.00,,CLR,0.00,VWS V14.01,2013-01-18 20:33:00,
2013-01-18 15:38:00,19.4,-3.8,30.35,WSW,245,10.0,10.0,35,0.00,,CLR,0.00,VWS V14.01,2013-01-18 20:38:00,
2013-01-18 15:43:00,19.2,-4.6,30.35,WNW,283,4.0,10.0,34,0.00,,CLR,0.00,VWS V14.01,2013-01-18 20:43:00,
2013-01-18 15:48:00,19.0,-4.1,30.35,WNW,294,6.0,13.0,35,0.00,,CLR,0.00,VWS V14.01,2013-01-18 20:48:00,
2013-01-18 15:53:00,18.8,-3.7,30.35,West,271,4.0,9.0,36,0.00,,CLR,0.00,VWS V14.01,2013-01-18 20:53:00,
2013-01-18 15:58:00,18.6,-2.8,30.35,WNW,288,7.0,10.0,38,0.00,,CLR,0.00,VWS V14.01,2013-01-18 20:58:00,
2013-01-18 16:03:00,18.5,-3.4,30.35,WNW,283,3.0,7.0,37,0.00,,CLR,0.00,VWS V14.01,2013-01-18 21:03:00,
2013-01-18 16:08:00,18.3,-3.6,30.34,WNW,303,6.0,6.0,37,0.00,,CLR,0.00,VWS V14.01,2013-01-18 21:08:00,
2013-01-18 16:13:00,18.2,-3.1,30.34,West,281,3.0,6.0,38,0.00,,CLR,0.00,VWS V14.01,2013-01-18 21:13:00,
2013-01-18 16:18:00,18.1,-3.2,30.34,WNW,292,4.0,5.0,38,0.00,,CLR,0.00,VWS V14.01,2013-01-18 21:18:00,
2013-01-18 16:23:00,17.9,-3.4,30.34,West,273,2.0,2.0,38,0.00,,CLR,0.00,VWS V14.01,2013-01-18 21:23:00,
2013-01-18 16:28:00,17.6,-2.6,30.35,WSW,255,1.0,4.0,40,0.00,,CLR,0.00,VWS V14.01,2013-01-18 21:28:00,
2013-01-18 16:33:00,17.5,-2.2,30.35,West,281,1.0,2.0,41,0.00,,CLR,0.00,VWS V14.01,2013-01-18 21:33:00,
2013-01-18 16:38:00,17.2,-3.0,30.35,West,266,4.0,4.0,40,0.00,,CLR,0.00,VWS V14.01,2013-01-18 21:38:00,
2013-01-18 16:43:00,17.1,-3.0,30.35,SSW,201,1.0,2.0,40,0.00,,CLR,0.00,VWS V14.01,2013-01-18 21:43:00,
2013-01-18 16:48:00,16.8,-3.3,30.35,SSW,197,1.0,1.0,40,0.00,,CLR,0.00,VWS V14.01,2013-01-18 21:48:00,
2013-01-18 16:53:00,16.6,-3.5,30.34,SSE,160,2.0,3.0,40,0.00,,CLR,0.00,VWS V14.01,2013-01-18 21:53:00,
2013-01-18 16:58:00,16.4,-2.7,30.34,SSE,152,2.0,2.0,42,0.00,,CLR,0.00,VWS V14.01,2013-01-18 21:58:00,
2013-01-18 17:03:00,16.3,-2.8,30.35,SE,138,1.0,1.0,42,0.00,,CLR,0.00,VWS V14.01,2013-01-18 22:03:00,
2013-01-18 17:08:00,16.1,-2.9,30.36,South,177,1.0,2.0,42,0.00,,CLR,0.00,VWS V14.01,2013-01-18 22:08:00,
2013-01-18 17:13:00,15.9,-2.6,30.36,South,179,1.0,3.0,43,0.00,,CLR,0.00,VWS V14.01,2013-01-18 22:13:00,
2013-01-18 17:18:00,15.8,-3.2,30.36,SSW,201,2.0,3.0,42,0.00,,CLR,0.00,VWS V14.01,2013-01-18 22:18:00,
2013-01-18 17:23:00,15.7,-2.3,30.37,SSW,205,2.0,2.0,44,0.00,,CLR,0.00,VWS V14.01,2013-01-18 22:23:00,
2013-01-18 17:28:00,15.6,-2.9,30.37,SSW,205,2.0,3.0,43,0.00,,CLR,0.00,VWS V14.01,2013-01-18 22:28:00,
2013-01-18 17:33:00,15.5,-3.0,30.37,WSW,242,2.0,2.0,43,0.00,,CLR,0.00,VWS V14.01,2013-01-18 22:33:00,
2013-01-18 17:38:00,15.4,-2.6,30.37,SW,236,2.0,3.0,44,0.00,,CLR,0.00,VWS V14.01,2013-01-18 22:38:00,
2013-01-18 17:43:00,15.3,-2.2,30.37,SSW,208,1.0,5.0,45,0.00,,CLR,0.00,VWS V14.01,2013-01-18 22:43:00,
2013-01-18 17:48:00,15.3,-2.2,30.38,West,274,1.0,2.0,45,0.00,,CLR,0.00,VWS V14.01,2013-01-18 22:48:00,
2013-01-18 17:53:00,15.4,-2.1,30.38,SW,228,8.0,8.0,45,0.00,,CLR,0.00,VWS V14.01,2013-01-18 22:53:00,
2013-01-18 17:58:00,15.5,-2.0,30.38,West,273,2.0,3.0,45,0.00,,CLR,0.00,VWS V14.01,2013-01-18 22:58:00,
2013-01-18 18:03:00,15.4,-2.1,30.38,WSW,239,1.0,5.0,45,0.00,,CLR,0.00,VWS V14.01,2013-01-18 23:03:00,
2013-01-18 18:08:00,15.2,-1.9,30.38,WSW,245,1.0,2.0,46,0.00,,CLR,0.00,VWS V14.01,2013-01-18 23:08:00,
2013-01-18 18:13:00,15.1,-2.0,30.38,SW,222,2.0,4.0,46,0.00,,CLR,0.00,VWS V14.01,2013-01-18 23:13:00,
2013-01-18 18:18:00,15.0,-2.0,30.38,SW,226,2.0,4.0,46,0.00,,CLR,0.00,VWS V14.01,2013-01-18 23:18:00,
2013-01-18 18:23:00,14.8,-1.8,30.38,WSW,254,1.0,5.0,47,0.00,,CLR,0.00,VWS V14.01,2013-01-18 23:23:00,
2013-01-18 18:28:00,14.7,-1.9,30.38,West,261,1.0,4.0,47,0.00,,CLR,0.00,VWS V14.01,2013-01-18 23:28:00,
2013-01-18 18:33:00,14.8,-2.2,30.39,West,263,1.0,5.0,46,0.00,,CLR,0.00,VWS V14.01,2013-01-18 23:33:00,
2013-01-18 18:38:00,14.9,-2.1,30.39,West,262,3.0,4.0,46,0.00,,CLR,0.00,VWS V14.01,2013-01-18 23:38:00,
2013-01-18 18:43:00,15.1,-2.0,30.39,West,271,3.0,6.0,46,0.00,,CLR,0.00,VWS V14.01,2013-01-18 23:43:00,
2013-01-18 18:48:00,15.3,-2.2,30.39,WSW,238,4.0,5.0,45,0.00,,CLR,0.00,VWS V14.01,2013-01-18 23:48:00,
2013-01-18 18:53:00,15.5,-2.0,30.39,WSW,248,1.0,5.0,45,0.00,,CLR,0.00,VWS V14.01,2013-01-18 23:53:00,
2013-01-18 18:58:00,15.5,-2.0,30.39,SW,225,2.0,4.0,45,0.00,,CLR,0.00,VWS V14.01,2013-01-18 23:58:00,
2013-01-18 19:03:00,15.5,-1.6,30.40,West,259,2.0,5.0,46,0.00,,CLR,0.00,VWS V14.01,2013-01-19 00:03:00,
2013-01-18 19:08:00,15.4,-1.7,30.39,SW,227,1.0,4.0,46,0.00,,CLR,0.00,VWS V14.01,2013-01-19 00:08:00,
2013-01-18 19:13:00,15.3,-1.8,30.40,SW,217,4.0,7.0,46,0.00,,CLR,0.00,VWS V14.01,2013-01-19 00:13:00,
2013-01-18 19:18:00,15.2,-1.4,30.39,WSW,249,3.0,5.0,47,0.00,,CLR,0.00,VWS V14.01,2013-01-19 00:18:00,
2013-01-18 19:23:00,15.1,-1.5,30.40,WSW,243,5.0,6.0,47,0.00,,CLR,0.00,VWS V14.01,2013-01-19 00:23:00,
2013-01-18 19:28:00,15.2,-1.4,30.40,West,276,2.0,3.0,47,0.00,,CLR,0.00,VWS V14.01,2013-01-19 00:28:00,
2013-01-18 19:33:00,15.4,-1.2,30.40,WSW,256,1.0,5.0,47,0.00,,CLR,0.00,VWS V14.01,2013-01-19 00:33:00,
2013-01-18 19:38:00,15.5,-1.1,30.40,WSW,246,2.0,3.0,47,0.00,,CLR,0.00,VWS V14.01,2013-01-19 00:38:00,
2013-01-18 19:43:00,15.4,-0.8,30.40,WSW,253,3.0,4.0,48,0.00,,CLR,0.00,VWS V14.01,2013-01-19 00:43:00,
2013-01-18 19:48:00,15.3,-0.9,30.40,West,271,5.0,5.0,48,0.00,,CLR,0.00,VWS V14.01,2013-01-19 00:48:00,
2013-01-18 19:53:00,15.2,-1.0,30.40,SW,235,1.0,4.0,48,0.00,,CLR,0.00,VWS V14.01,2013-01-19 00:53:00,
2013-01-18 19:58:00,15.1,-1.5,30.40,WSW,255,3.0,4.0,47,0.00,,CLR,0.00,VWS V14.01,2013-01-19 00:58:00,
2013-01-18 20:03:00,15.0,-1.6,30.40,West,281,5.0,5.0,47,0.00,,CLR,0.00,VWS V14.01,2013-01-19 01:03:00,
2013-01-18 20:08:00,14.9,-1.2,30.40,West,274,1.0,3.0,48,0.00,,CLR,0.00,VWS V14.01,2013-01-19 01:08:00,
2013-01-18 20:13:00,14.9,-1.2,30.40,West,264,1.0,4.0,48,0.00,,CLR,0.00,VWS V14.01,2013-01-19 01:13:00,
2013-01-18 20:18:00,14.8,-1.3,30.41,WNW,298,2.0,4.0,48,0.00,,CLR,0.00,VWS V14.01,2013-01-19 01:18:00,
2013-01-18 20:23:00,14.9,-1.2,30.41,WSW,252,4.0,8.0,48,0.00,,CLR,0.00,VWS V14.01,2013-01-19 01:23:00,
2013-01-18 20:28:00,15.2,-1.4,30.41,SSW,197,2.0,5.0,47,0.00,,CLR,0.00,VWS V14.01,2013-01-19 01:28:00,
2013-01-18 20:33:00,15.2,-1.4,30.41,WSW,253,3.0,4.0,47,0.00,,CLR,0.00,VWS V14.01,2013-01-19 01:33:00,
2013-01-18 20:38:00,15.2,-1.4,30.42,West,266,1.0,3.0,47,0.00,,CLR,0.00,VWS V14.01,2013-01-19 01:38:00,
2013-01-18 20:43:00,15.2,-1.0,30.41,SW,221,5.0,5.0,48,0.00,,CLR,0.00,VWS V14.01,2013-01-19 01:43:00,
2013-01-18 20:48:00,15.2,-1.4,30.41,South,181,3.0,7.0,47,0.00,,CLR,0.00,VWS V14.01,2013-01-19 01:48:00,
2013-01-18 20:53:00,15.2,-1.0,30.41,SSW,211,1.0,1.0,48,0.00,,CLR,0.00,VWS V14.01,2013-01-19 01:53:00,
2013-01-18 20:58:00,15.0,-1.1,30.41,SW,226,1.0,2.0,48,0.00,,CLR,0.00,VWS V14.01,2013-01-19 01:58:00,
2013-01-18 21:03:00,14.8,-1.3,30.41,WSW,249,1.0,3.0,48,0.00,,CLR,0.00,VWS V14.01,2013-01-19 02:03:00,
2013-01-18 21:08:00,14.7,-1.0,30.41,West,274,1.0,3.0,49,0.00,,CLR,0.00,VWS V14.01,2013-01-19 02:08:00,
2013-01-18 21:13:00,14.8,-1.3,30.41,SSW,205,1.0,3.0,48,0.00,,CLR,0.00,VWS V14.01,2013-01-19 02:13:00,
2013-01-18 21:18:00,14.9,-0.8,30.41,SSW,212,1.0,5.0,49,0.00,,CLR,0.00,VWS V14.01,2013-01-19 02:18:00,
2013-01-18 21:23:00,15.2,-0.5,30.41,SW,227,4.0,6.0,49,0.00,,CLR,0.00,VWS V14.01,2013-01-19 02:23:00,
2013-01-18 21:28:00,15.4,-0.3,30.40,West,274,2.0,4.0,49,0.00,,CLR,0.00,VWS V14.01,2013-01-19 02:28:00,
2013-01-18 21:33:00,15.7,-0.1,30.41,WSW,241,5.0,7.0,49,0.00,,CLR,0.00,VWS V14.01,2013-01-19 02:33:00,
2013-01-18 21:38:00,15.8,0.0,30.40,WSW,253,2.0,6.0,49,0.00,,CLR,0.00,VWS V14.01,2013-01-19 02:38:00,
2013-01-18 21:43:00,15.8,0.5,30.40,West,266,3.0,6.0,50,0.00,,CLR,0.00,VWS V14.01,2013-01-19 02:43:00,
2013-01-18 21:48:00,15.8,0.0,30.40,SSW,200,5.0,8.0,49,0.00,,CLR,0.00,VWS V14.01,2013-01-19 02:48:00,
2013-01-18 21:53:00,15.8,0.0,30.40,SW,229,6.0,6.0,49,0.00,,CLR,0.00,VWS V14.01,2013-01-19 02:53:00,
2013-01-18 21:58:00,15.9,0.6,30.40,SSW,210,6.0,6.0,50,0.00,,CLR,0.00,VWS V14.01,2013-01-19 02:58:00,
2013-01-18 22:03:00,15.9,0.6,30.40,WSW,256,2.0,7.0,50,0.00,,CLR,0.00,VWS V14.01,2013-01-19 03:03:00,
2013-01-18 22:08:00,15.9,1.0,30.40,SW,215,1.0,6.0,51,0.00,,CLR,0.00,VWS V14.01,2013-01-19 03:08:00,
2013-01-18 22:13:00,15.8,0.9,30.40,SW,227,4.0,5.0,51,0.00,,CLR,0.00,VWS V14.01,2013-01-19 03:13:00,
2013-01-18 22:18:00,16.0,1.1,30.40,WSW,243,2.0,5.0,51,0.00,,CLR,0.00,VWS V14.01,2013-01-19 03:18:00,
2013-01-18 22:23:00,16.0,1.1,30.40,WSW,255,4.0,6.0,51,0.00,,CLR,0.00,VWS V14.01,2013-01-19 03:23:00,
2013-01-18 22:28:00,16.0,1.1,30.40,SW,229,10.0,10.0,51,0.00,,CLR,0.00,VWS V14.01,2013-01-19 03:28:00,
2013-01-18 22:33:00,16.1,1.2,30.39,WSW,241,7.0,8.0,51,0.00,,CLR,0.00,VWS V14.01,2013-01-19 03:33:00,
2013-01-18 22:38:00,16.1,1.6,30.39,SW,229,5.0,7.0,52,0.00,,CLR,0.00,VWS V14.01,2013-01-19 03:38:00,
2013-01-18 22:43:00,16.1,1.6,30.39,WSW,250,4.0,5.0,52,0.00,,CLR,0.00,VWS V14.01,2013-01-19 03:43:00,
2013-01-18 22:48:00,16.2,1.7,30.39,SW,229,3.0,4.0,52,0.00,,CLR,0.00,VWS V14.01,2013-01-19 03:48:00,
2013-01-18 22:53:00,16.1,2.0,30.39,West,271,2.0,5.0,53,0.00,,CLR,0.00,VWS V14.01,2013-01-19 03:53:00,
2013-01-18 22:58:00,16.1,2.0,30.39,SW,226,2.0,4.0,53,0.00,,CLR,0.00,VWS V14.01,2013-01-19 03:58:00,
2013-01-18 23:03:00,16.0,1.9,30.39,SW,221,2.0,4.0,53,0.00,,CLR,0.00,VWS V14.01,2013-01-19 04:03:00,
2013-01-18 23:08:00,15.8,2.1,30.39,SW,215,3.0,3.0,54,0.00,,CLR,0.00,VWS V14.01,2013-01-19 04:08:00,
2013-01-18 23:13:00,15.8,2.1,30.39,WSW,248,4.0,4.0,54,0.00,,CLR,0.00,VWS V14.01,2013-01-19 04:13:00,
2013-01-18 23:18:00,15.8,2.1,30.39,West,273,4.0,6.0,54,0.00,,CLR,0.00,VWS V14.01,2013-01-19 04:18:00,
2013-01-18 23:23:00,15.9,2.2,30.38,SSW,209,3.0,5.0,54,0.00,,CLR,0.00,VWS V14.01,2013-01-19 04:23:00,
2013-01-18 23:28:00,15.9,2.2,30.38,SSW,213,1.0,3.0,54,0.00,,CLR,0.00,VWS V14.01,2013-01-19 04:28:00,
2013-01-18 23:33:00,16.0,2.3,30.38,NW,315,2.0,3.0,54,0.00,,CLR,0.00,VWS V14.01,2013-01-19 04:33:00,
2013-01-18 23:38:00,16.1,2.4,30.37,SW,219,1.0,3.0,54,0.00,,CLR,0.00,VWS V14.01,2013-01-19 04:38:00,
2013-01-18 23:43:00,16.1,2.8,30.37,SW,236,3.0,6.0,55,0.00,,CLR,0.00,VWS V14.01,2013-01-19 04:43:00,
2013-01-18 23:48:00,16.2,2.9,30.37,SW,217,1.0,2.0,55,0.00,,CLR,0.00,VWS V14.01,2013-01-19 04:48:00,
2013-01-18 23:53:00,16.2,2.9,30.36,South,184,1.0,6.0,55,0.00,,CLR,0.00,VWS V14.01,2013-01-19 04:53:00,
2013-01-18 23:58:00,16.3,3.0,30.36,SW,226,7.0,7.0,55,0.00,,CLR,0.00,VWS V14.01,2013-01-19 04:58:00,